Location: Musselshell
(46.5176°N, 108.0911°W)
Time: 01:46:42
(UTC+00:00)

VELOX 1 - Pass Details

Date: 05 July 2022
Orbit: 623 x 639 km, 98.4° (Epoch: 17 August)

Event Time Altitude Azimuth Distance (km) Brightness Sun altitude
Rises 10:40:22 0° 133° (SE) 2,926 ? -6.9°
Reaches altitude 10° 10:42:49 10° 121° (ESE) 2,024 ? -6.6°
Maximum altitude 10:46:29 27° 65° (ENE) 1,247 ? -6.1°
Drops below altitude 10° 10:50:12 10° 8° (N) 2,042 ? -5.7°
Sets 10:52:40 0° 357° (N) 2,958 ? -5.3°
